DW9321 Weather Reports


Display with metric or nautical units.
time (UTC)temp
F
wind
direction
speed
MPH
gust
MPH
rain 1hr
in
rain 24hr
in
rain mn
in
humidity
%
barometer
mb
20180221012738 9 309 1.0 4.0 0.00 0.00 0.00 84 1029.5
20180221011235 11 137 0.0 1.0 0.00 0.00 0.00 84 1029.2
20180221005730 12 137 0.0 3.0 0.00 0.00 0.00 82 1029.1
20180221004221 12 159 0.0 5.0 0.00 0.00 0.00 81 1028.9
20180221002719 13 139 2.0 5.0 0.00 0.00 0.00 81 1028.6
20180221001215 14 136 1.0 7.0 0.00 0.00 0.00 81 1028.3
20180220235710 14 146 1.0 6.0 0.00 0.00 0.00 80 1027.9
20180220234204 14 153 0.0 6.0 0.00 0.00 0.00 79 1027.9
20180220232659 15 158 5.0 15.0 0.00 0.00 0.00 74 1027.5
20180220231153 16 172 1.0 6.0 0.00 0.00 0.00 73 1027.3
20180220225648 16 122 1.0 5.0 0.00 0.00 0.00 72 1027.3
20180220224144 17 142 5.0 8.0 0.00 0.00 0.00 67 1027.0
20180220222639 16 151 1.0 7.0 0.00 0.00 0.00 68 1026.8
20180220221134 16 269 0.0 6.0 0.00 0.00 0.00 62 1026.5
20180220215629 17 135 2.0 6.0 0.00 0.00 0.00 69 1026.2
20180220214128 17 144 1.0 6.0 0.00 0.00 0.00 70 1025.9
20180220212623 16 151 2.0 7.0 0.00 0.00 0.00 66 1025.6
20180220211116 17 217 4.0 10.0 0.00 0.00 0.00 59 1025.3
20180220205618 16 204 0.0 7.0 0.00 0.00 0.00 68 1025.2
20180220204107 16 155 1.0 13.0 0.00 0.00 0.00 66 1024.9
20180220202604 17 300 2.0 11.0 0.00 0.00 0.00 59 1024.7
20180220201100 16 151 4.0 8.0 0.00 0.00 0.00 63 1024.8
20180220195553 17 305 1.0 7.0 0.00 0.00 0.00 56 1024.7
20180220194051 16 123 0.0 10.0 0.00 0.00 0.00 65 1024.7
20180220192545 16 295 7.0 25.0 0.00 0.00 0.00 56 1024.6
20180220191039 16 167 9.0 24.0 0.00 0.00 0.00 52 1024.6
20180220185534 16 313 14.0 28.0 0.00 0.00 0.00 53 1024.9
20180220184030 15 285 13.0 21.0 0.00 0.00 0.00 53 1024.9
20180220182525 15 323 17.0 27.0 0.00 0.00 0.00 52 1024.8
20180220181021 15 293 12.0 22.0 0.00 0.00 0.00 54 1024.9
20180220175518 15 290 7.0 15.0 0.00 0.00 0.00 57 1024.9
20180220174012 15 1 4.0 12.0 0.00 0.00 0.00 61 1024.9
20180220172508 14 297 0.0 6.0 0.00 0.00 0.00 63 1024.8
20180220171004 13 315 1.0 9.0 0.00 0.00 0.00 66 1024.8
20180220165458 13 290 3.0 11.0 0.00 0.00 0.00 60 1024.8
20180220163957 13 320 2.0 10.0 0.00 0.00 0.00 63 1024.6
20180220162449 13 305 2.0 10.0 0.00 0.00 0.00 63 1024.7
20180220160946 12 297 0.0 5.0 0.00 0.00 0.00 65 1024.4
20180220155441 12 293 1.0 10.0 0.00 0.00 0.00 67 1024.2
20180220153935 11 309 2.0 10.0 0.00 0.00 0.00 65 1023.9
20180220152430 11 308 0.0 0.0 0.00 0.00 0.00 66 1023.8
20180220150928 10 328 0.0 0.0 0.00 0.00 0.00 67 1023.6
20180220145425 9 300 0.0 0.0 0.00 0.00 0.00 76 1023.6
20180220143917 7 300 0.0 0.0 0.00 0.00 0.00 76 1023.3
20180220142414 7 281 0.0 0.0 0.00 0.00 0.00 77 1022.9
20180220140908 6 291 0.0 0.0 0.00 0.00 0.00 79 1022.5
20180220135405 5 308 0.0 0.0 0.00 0.00 0.00 82 1022.2
20180220133900 4 315 0.0 0.0 0.00 0.00 0.00 86 1022.0
20180220132355 2 305 0.0 0.0 0.00 0.00 0.00 87 1021.6
20180220130850 -1 329 0.0 0.0 0.00 0.00 0.00 88 1021.6
20180220125348 -9 125 0.0 0.0 0.00 0.00 0.00 87 1021.3
20180220123842 -13 304 0.0 0.0 0.00 0.00 0.00 81 1020.9
20180220122340 -12 300 0.0 0.0 0.00 0.00 0.00 83 1020.8
20180220120832 -12 294 0.0 0.0 0.00 0.00 0.00 81 1020.3
20180220115328 -10 323 0.0 0.0 0.00 0.00 0.00 83 1020.1
20180220113823 -10 129 0.0 0.0 0.00 0.00 0.00 83 1019.8
20180220112319 -10 145 0.0 0.0 0.00 0.00 0.00 83 1019.4
20180220110814 -9 141 0.0 0.0 0.00 0.00 0.00 83 1018.9
20180220105309 -8 116 0.0 0.0 0.00 0.00 0.00 83 1018.5
20180220103805 -7 150 0.0 0.0 0.00 0.00 0.00 83 1017.9
20180220102300 -7 136 0.0 0.0 0.00 0.00 0.00 83 1017.7
20180220100759 -6 136 0.0 0.0 0.00 0.00 0.00 84 1017.6
20180220095252 -6 143 0.0 0.0 0.00 0.00 0.00 85 1017.8
20180220093747 -7 291 0.0 0.0 0.00 0.00 0.00 84 1017.6
20180220092243 -7 316 0.0 0.0 0.00 0.00 0.00 84 1017.6
20180220090738 -7 154 0.0 0.0 0.00 0.00 0.00 84 1017.2
20180220085234 -7 75 0.0 0.0 0.00 0.00 0.00 84 1016.9
20180220083729 -5 84 0.0 0.0 0.00 0.00 0.00 84 1016.1
20180220082226 -5 148 0.0 0.0 0.00 0.00 0.00 84 1015.5
20180220080721 -4 96 0.0 0.0 0.00 0.00 0.00 83 1015.1
20180220075217 -3 152 0.0 0.0 0.00 0.00 0.00 84 1014.9
20180220073713 -3 155 0.0 0.0 0.00 0.00 0.00 84 1014.5
20180220072207 -2 112 0.0 0.0 0.00 0.00 0.00 84 1014.1
20180220070703 -2 105 0.0 0.0 0.00 0.00 0.00 85 1013.2
20180220065157 -2 200 0.0 0.0 0.00 0.00 0.00 84 1013.3
20180220063653 -2 144 0.0 0.0 0.00 0.00 0.00 84 1013.0
20180220062154 -1 139 0.0 0.0 0.00 0.00 0.00 84 1012.2
20180220060647 -1 143 0.0 0.0 0.00 0.00 0.00 85 1012.5
20180220055142 0 115 0.0 0.0 0.00 0.00 0.00 85 1012.4
20180220053635 -1 91 0.0 0.0 0.00 0.00 0.00 85 1011.7
20180220052134 0 155 0.0 0.0 0.00 0.00 0.00 85 1012.1
20180220050627 0 158 0.0 0.0 0.00 0.00 0.00 85 1011.6
20180220045124 0 170 0.0 0.0 0.00 0.00 0.00 85 1011.4
20180220043616 0 335 0.0 0.0 0.00 0.00 0.00 85 1011.2
20180220042112 0 293 0.0 0.0 0.00 0.00 0.00 84 1011.0
20180220040612 0 57 0.0 0.0 0.00 0.00 0.00 85 1009.7
20180220035107 0 9 0.0 0.0 0.00 0.00 0.00 85 1010.2
20180220033559 0 323 0.0 0.0 0.00 0.00 0.00 85 1009.8
20180220032055 0 172 0.0 0.0 0.00 0.00 0.00 85 1010.1
20180220030550 1 154 0.0 0.0 0.00 0.00 0.00 85 1009.4
20180220025049 1 16 0.0 0.0 0.00 0.00 0.00 86 1008.8
20180220023540 1 66 0.0 1.0 0.00 0.00 0.00 86 1007.8
20180220022040 1 309 0.0 2.0 0.00 0.00 0.00 85 1007.3
20180220020532 2 319 0.0 1.0 0.00 0.00 0.00 86 1006.9
20180220015028 2 126 0.0 2.0 0.00 0.00 0.00 86 1006.7
20180220013525 2 32 0.0 2.0 0.00 0.00 0.00 86 1006.1